Location: Ailingen
(47.6833°N, 9.5000°E)
Time: 12:36:21
(UTC+00:00)

Cosmos 2251 Rocket - Pass Details

Date: 18 November 2025
Orbit: 760 x 788 km, 74.0° (Epoch: 11 December)

Event Time Altitude Azimuth Distance (km) Brightness Sun altitude
Rises 17:26:13 0° 201° (SSW) 3,231 7.2 -17.3°
Reaches altitude 10° 17:28:34 10° 202° (SSW) 2,313 6.4 -17.7°
Maximum altitude 17:33:51 87° 292° (WNW) 786 3.5 -18.6°
Enters shadow 17:38:37 13° 22° (NNE) 2,121 5.5 -19.4°
